Location: Ch�ze
(42.9000°N, 0.0333°W)
Time: 23:43:35
(UTC+00:00)

Iridium 4 Rocket - Pass Details

Date: 24 January 2021
Orbit: 583 x 906 km, 86.9° (Epoch: 24 February)

Event Time Altitude Azimuth Distance (km) Brightness Sun altitude
Rises 19:06:41 0° 354° (N) 3,436 6.9 -22.6°
Reaches altitude 10° 19:09:13 10° 351° (N) 2,456 6.2 -23.1°
Maximum altitude 19:14:38 59° 273° (W) 907 4.1 -24.1°
Drops below altitude 10° 19:19:33 10° 195° (SSW) 2,235 6.1 -25.0°
Sets 19:21:46 0° 191° (S) 3,102 6.8 -25.4°
